Skip Page Navigation
NASA JPL Caltech
NASA Logo - Jet Propulsion Laboratory + View the NASA Portal
+ Center for Near-Earth Object Studies
JPL Home Earth Solar System Stars & Galaxies Technology
JPL Solar System Dynamics
BODIES ORBITS EPHEMERIDES TOOLS PHYSICAL DATA DISCOVERY FAQ SITE MAP
JPL Small-Body Database Browser
Search: [ help ]  
184266 (2004 VW14)
Classification: Apollo [NEO, PHA]          SPK-ID: 2184266
Ephemeris | Orbit Diagram | Orbital Elements | Mission Design | Physical Parameters | Discovery Circumstances | Close-Approach Data ]

[ show orbit diagram ]
Orbital Elements at Epoch 2459200.5 (2020-Dec-17.0) TDB
Reference: JPL 76 (heliocentric ecliptic J2000)
 Element Value Uncertainty (1-sigma)   Units 
e .6006001103146089 1.7218e-08  
a 2.118094489368862 7.4175e-09 au
q .8459667053971583 3.4947e-08 au
i 3.85153573722474 2.8745e-06 deg
node 101.1578644198773 3.0395e-05 deg
peri 42.29528577232897 3.0579e-05 deg
M 53.96964493220724 9.2801e-06 deg
tp 2459031.703482452288
(2020-Jul-01.20348245)
2.8157e-05 TDB
period 1125.943044344782
3.08
5.9145e-06
1.619e-08
d
yr
n .3197319809453543 1.6795e-09 deg/d
Q 3.390222273340567 1.1872e-08 au
  Orbit Determination Parameters
   # obs. used (total)      584  
   # delay obs. used      1  
   # Doppler obs. used      1  
   data-arc span      2392 days (6.55 yr)  
   first obs. used      2004-11-03  
   last obs. used      2011-05-23  
   planetary ephem.      DE441  
   SB-pert. ephem.      SB441-N16  
   condition code      0  
   norm. resid. RMS      .31986  
   source      ORB  
   producer      Otto Matic  
   solution date      2021-Apr-13 21:42:27  

Additional Information
 Earth MOID = .0099371 au 
 Jupiter MOID = 1.64605 au 
 T_jup = 3.475 
[ show covariance matrix ]

Ephemeris | Orbit Diagram | Orbital Elements | Mission Design | Physical Parameters | Discovery Circumstances | Close-Approach Data ]

Physical Parameter Table
Parameter Symbol Value Units Sigma Reference Notes
absolute magnitude H 19.4   n/a MPO236994  
rotation period rot_per 2.5009 h n/a LCDB (Rev. 2020-October); Warner et al., 2009 Published Reference List:
[Pravec, P.; Wolf, M.; Sarounova, L. (2004) http://www.asu.cas.cz/~ppravec/neo.htm]

184266 (2004 VW14)          Discovered 2004-Nov-03 by LONEOS at Anderson Mesa
Reference: 20080420/Numbers.arcLast Updated: 2008-04-23

[ show close-approach data ]
Ephemeris | Orbit Diagram | Orbital Elements | Mission Design | Physical Parameters | Discovery Circumstances | Close-Approach Data ]
ABOUT SSD CREDITS/AWARDS PRIVACY/COPYRIGHT GLOSSARY LINKS
FirstGov 2021-Apr-16 04:03 UT
(server date/time)  
NASA Home Page
Site Manager:   Ryan S. Park
Webmaster  Alan B. Chamberlin